Regional Weather Roundup
Issued by NWS

Home | Current Version | Previous Version | Graphics & Text | Print | Product List | Glossary On
Versions: 1 2 3 4 5 6 7 8 9 10 11 12 13 14 15 16 17 18 19 20 21 22 23 24 25 26 27 28 29 30 31 32 33 34 35 36 37 38 39 40 41 42 43 44 45 46 47 48 49 50
000
ASUS44 KMEG 261210
RWRTN
TENNESSEE HOURLY STATE WEATHER ROUNDUP
NATIONAL WEATHER SERVICE MEMPHIS TN
700 AM CDT THU MAY 26 2016

TNZ002-004-019-021-049-052-054-088>092-261300-
WEST TENNESSEE

CITY           SKY/WX    TMP DP  RH WIND       PRES   REMARKS
MEMPHIS INTL   PTSUNNY   75  69  81 S12       30.06R
NWS MEMPHIS      N/A     72 N/A N/A MISG        N/A
JACKSON        MOSUNNY   71  65  81 S10       30.07R
DYERSBURG      PTSUNNY   70  64  83 S5        30.05R
UNION CITY     MOSUNNY   70  66  88 S6        30.04R
PARIS          MOSUNNY   66  63  88 S8        30.07S
LEXINGTON      PTSUNNY   68  64  88 S7        30.09R
$$

TNZ008-025-027-028-033-062-065-066-261300-
NORTH MIDDLE TENNESSEE

CITY           SKY/WX    TMP DP  RH WIND       PRES   REMARKS
NASHVILLE      MOSUNNY   68  63  84 CALM      30.11S
CLARKSVILLE    MOSUNNY   64  62  93 S5        30.08R
SMYRNA         MOSUNNY   67  64  90 SE5       30.13R
COOKEVILLE     MOSUNNY   68  64  88 S5        30.15S
CROSSVILLE     PTSUNNY   64  62  93 CALM      30.21S FOG
$$

TNZ061-075-076-078-094-096-097-261300-
SOUTH MIDDLE TENNESSEE

CITY           SKY/WX    TMP DP  RH WIND       PRES   REMARKS
FAYETTEVILLE   SUNNY     70  61  73 S8        30.15S
TULLAHOMA      SUNNY     66  64  94 S3        30.16F
WINCHESTER     SUNNY     68  61  77 SE3       30.16F
MCMINNVILLE    SUNNY     66  66 100 CALM      30.15F
COLUMBIA       SUNNY     72  72 100 S3        30.11R
SHELBYVILLE    SUNNY     72  63  73 S7        30.14F
$$

TNZ017-018-042-046-047-261300-
NORTHEAST TENNESSEE

CITY           SKY/WX    TMP DP  RH WIND       PRES   REMARKS
TRI CITIES     CLOUDY    66  63  90 CALM      30.20S
$$

TNZ012-013-036-069-073-074-261300-
CENTRAL EAST TENNESSEE

CITY           SKY/WX    TMP DP  RH WIND       PRES   REMARKS
KNOXVILLE      LGT RAIN  68  61  78 CALM      30.20R
OAK RIDGE      LGT RAIN  66  63  90 W3        30.23R FOG
GATLINBURG     PTSUNNY   63  61  94 N5        30.20R
$$

TNZ083-085-099-261300-
SOUTHEAST TENNESSEE

CITY           SKY/WX    TMP DP  RH WIND       PRES   REMARKS
CHATTANOOGA    CLOUDY    69  64  84 W3        30.18F
$$

SKY/WX REPORTED AS FAIR MEANS FEW OR NO CLOUDS BELOW
12 THOUSAND FEET.




USA.gov is the U.S. government's official web portal to all federal, state and local government web resources and services.